Tracking 29892 objects as of 21-Nov-2024
HD Live streaming from Space Station
objects crossing your sky now

SL-14 R/B

Track SL-14 R/B now!
10-day predictions


NORAD ID: 22287
Int'l Code: 1992-094B
Perigee: 620.3 km
Apogee: 656.0 km
Inclination: 82.5 °
Period: 97.3 minutes
Semi major axis: 7009 km
RCS: 4.3914 m2 (large)
Launch date: December 25, 1992
Source: Commonwealth of Independent States (former USSR) (CIS)
Launch site: PLESETSK MISSILE AND SPACE COMPLEX (PKMTR)

Note: This is a ROCKET BODY
Your satellite tracking list
Your tracking list is empty




NASA's NSSDC Master Catalog

Two Line Element Set (TLE):
1 22287U 92094B   24325.75669053  .00000880  00000-0  11418-3 0  9996
2 22287  82.5245  74.0741 0025475  90.2458 270.1674 14.79455926698432
Source of the keplerian elements: AFSPC